This is the latest recevied weather packets stored in our database for station/object K5FEP. If no packets are shown the sender has not sent any weather packets the latest 10 day(s).
| Time | Temp. | Humidity | Pressure | Rain* | Wind** | Luminosity | Snow |
|---|---|---|---|---|---|---|---|
| 1787962480 | 28.33° C | 70% | 1016.4 hPa | 0 mm | - | 0 W/m² | - |
| 1787962179 | 28.33° C | 70% | 1016.2 hPa | 0 mm | - | 0 W/m² | - |
| 1787961874 | 28.33° C | 69% | 1016.3 hPa | 0 mm | - | 0 W/m² | - |
| 1787961572 | 28.33° C | 69% | 1016.1 hPa | 0 mm | - | 1 W/m² | - |
| 1787961267 | 28.33° C | 69% | 1016 hPa | 0 mm | - | 2 W/m² | - |
| 1787960967 | 28.89° C | 68% | 1016 hPa | 0 mm | - | 4 W/m² | - |
| 1787960662 | 28.89° C | 68% | 1016 hPa | 0 mm | - | 7 W/m² | - |
| 1787960361 | 28.89° C | 68% | 1016.3 hPa | 0 mm | - | 13 W/m² | - |
| 1787960055 | 28.89° C | 67% | 1016.1 hPa | 0 mm | - | 16 W/m² | - |
| 1787959750 | 28.89° C | 67% | 1016.3 hPa | 0 mm | - | 14 W/m² | - |
| 1787959446 | 29.44° C | 65% | 1016.2 hPa | 0 mm | - | 12 W/m² | - |
| 1787959140 | 29.44° C | 63% | 1016.1 hPa | 0 mm | - | 13 W/m² | - |
| 1787958835 | 29.44° C | 61% | 1016 hPa | 0 mm | - | 14 W/m² | - |
| 1787958531 | 30° C | 56% | 1016.1 hPa | 0 mm | - | 13 W/m² | - |
| 1787958227 | 30° C | 58% | 1015.6 hPa | 0 mm | - | 15 W/m² | - |
| 1787957926 | 30° C | 57% | 1015.5 hPa | 0 mm | - | 15 W/m² | - |
| 1787957625 | 30° C | 54% | 1015.7 hPa | 0 mm | - | 16 W/m² | - |
| 1787957321 | 30° C | 53% | 1015.4 hPa | 0 mm | - | 20 W/m² | - |
| 1787957020 | 30° C | 52% | 1015.6 hPa | 0 mm | - | 29 W/m² | - |
| 1787956719 | 30.56° C | 50% | 1015.3 hPa | 0 mm | - | 27 W/m² | - |
| 1787956415 | 30.56° C | 50% | 1015.7 hPa | 0 mm | - | 27 W/m² | - |
| 1787956110 | 30.56° C | 48% | 1015.4 hPa | 0 mm | - | 42 W/m² | - |
| 1787955806 | 31.11° C | 49% | 1015.3 hPa | 0 mm | - | 54 W/m² | - |
| 1787955501 | 31.11° C | 47% | 1015.5 hPa | 0 mm | - | 57 W/m² | - |
| 1787955200 | 31.67° C | 46% | 1015.3 hPa | 0 mm | - | 60 W/m² | - |
* Rain latest hour (hover to see other rain measurements)
** Current wind speed in m/s (hover to see current wind gust speed)